Weather History for KITH - September, 2014

Change the Weather History Date:

Saturday, September 27, 2014

  Actual Average Record
Temperature  
Mean Temperature 60 °F -  
Max Temperature 74 °F 66 °F 82 °F (1970)
Min Temperature 46 °F 46 °F 27 °F (1947)
Degree Days  
Heating Degree Days 5    
Growing Degree Days 10 (Base 50)    
Moisture  
Dew Point 52 °F    
Average Humidity 88    
Maximum Humidity 100    
Minimum Humidity 55    
Precipitation  
Precipitation 0.00 in - - ()
Sea Level Pressure  
Sea Level Pressure 30.29 in    
Wind  
Wind Speed 3 mph (ENE)    
Max Wind Speed 8 mph    
Max Gust Speed -    
Visibility 7 miles    
Events Fog    
Averages and records for this station are not official NWS values.
T = Trace of Precipitation, MM = Missing Value Source: NWS Daily Summary

Daily Weather History Graph

Daily Weather History Graph

Search for Another Location

Airport or City:

Trip Planner

Search our weather history database for the weather conditions in past years. The results will help you decide how hot, cold, wet, or windy it might be!

Date:

Astronomy

Sep. 27, 2014 Rise Set
Actual Time 6:58 AM EDT 6:54 PM EDT
Civil Twilight 6:30 AM EDT 7:22 PM EDT
Nautical Twilight 5:57 AM EDT 7:54 PM EDT
Astronomical Twilight 5:24 AM EDT 8:28 PM EDT
Moon 10:15 AM EDT (9/27) 8:48 PM EDT (9/27)
Length of Visible Light 12h 51m
Length of Day
11h 55m
Waxing Crescent, 11% of the Moon is Illuminated
Sep 27
Waxing Crescent
Oct 1
First Quarter
Oct 8
Full
Oct 15
Last Quarter
Oct 23
New

Hourly Weather History & Observations

Time (EDT) Temp. Windchill Dew Point Humidity Pressure Visibility Wind Dir Wind Speed Gust Speed Precip Events Conditions
12:56 AM 50.9 °F - 50.9 °F 100% 30.30 in 7.0 mi East 4.6 mph - N/A   Clear
1:56 AM 48.9 °F - 48.9 °F 100% 30.31 in 6.0 mi Calm Calm - N/A   Clear
2:31 AM 46.4 °F 44.3 °F 46.4 °F 100% 30.29 in 2.0 mi East 4.6 mph - N/A   Clear
2:40 AM 48.2 °F - 48.2 °F 100% 30.29 in 5.0 mi East 5.8 mph - N/A   Clear
2:56 AM 50.0 °F - 50.0 °F 100% 30.29 in 4.0 mi Calm Calm - N/A   Clear
3:12 AM 48.2 °F - 48.2 °F 100% 30.30 in 2.0 mi East 3.5 mph - N/A   Clear
3:25 AM 50.0 °F - 48.2 °F 94% 30.29 in 4.0 mi East 4.6 mph - N/A   Clear
3:43 AM 48.2 °F - 48.2 °F 100% 30.30 in 1.5 mi Calm Calm - N/A   Clear
3:56 AM 46.9 °F - 46.9 °F 100% 30.30 in 3.0 mi Calm Calm - N/A   Clear
4:02 AM 46.4 °F 45.2 °F 46.4 °F 100% 30.30 in 1.8 mi SSE 3.5 mph - N/A   Clear
4:15 AM 46.4 °F - 46.4 °F 100% 30.30 in 1.0 mi Calm Calm - N/A   Clear
4:24 AM 46.4 °F 45.2 °F 46.4 °F 100% 30.30 in 1.5 mi East 3.5 mph - N/A   Clear
4:26 AM 46.4 °F 44.3 °F 46.4 °F 100% 30.30 in 3.0 mi East 4.6 mph - N/A   Clear
4:56 AM 48.9 °F - 47.8 °F 96% 30.30 in 1.8 mi East 5.8 mph - N/A   Clear
5:15 AM 48.2 °F - 48.2 °F 100% 30.31 in 3.0 mi East 5.8 mph - N/A   Clear
5:56 AM 47.8 °F - 47.8 °F 100% 30.31 in 4.0 mi Calm Calm - N/A   Clear
6:30 AM 46.4 °F - 46.4 °F 100% 30.31 in 7.0 mi Calm Calm - N/A Fog Patches of Fog
6:56 AM 46.9 °F - 46.9 °F 100% 30.31 in 7.0 mi East 4.6 mph - N/A Fog Patches of Fog
7:56 AM 50.0 °F - 48.9 °F 96% 30.32 in 10.0 mi Calm Calm - N/A Fog Patches of Fog
8:56 AM 55.9 °F - 54.0 °F 93% 30.32 in 10.0 mi Calm Calm - N/A   Clear
9:56 AM 63.9 °F - 54.9 °F 72% 30.33 in 10.0 mi West 3.5 mph - N/A   Clear
10:56 AM 66.9 °F - 54.9 °F 65% 30.32 in 10.0 mi Calm Calm - N/A   Clear
11:56 AM 70.0 °F - 56.8 °F 63% 30.32 in 10.0 mi Variable 4.6 mph - N/A   Clear
12:56 PM 72.9 °F - 59.9 °F 64% 30.31 in 10.0 mi NW 4.6 mph - N/A   Clear
1:56 PM 74.8 °F - 59.9 °F 60% 30.29 in 10.0 mi West 5.8 mph - N/A   Clear
2:56 PM 74.8 °F - 57.9 °F 55% 30.28 in 10.0 mi NW 8.1 mph - N/A   Clear
3:56 PM 74.8 °F - 57.9 °F 55% 30.27 in 10.0 mi WNW 8.1 mph - N/A   Clear
4:56 PM 72.9 °F - 56.8 °F 57% 30.25 in 10.0 mi NW 8.1 mph - N/A   Clear
5:56 PM 70.9 °F - 59.0 °F 66% 30.25 in 10.0 mi NNW 4.6 mph - N/A   Clear
6:56 PM 63.9 °F - 59.0 °F 84% 30.25 in 10.0 mi North 3.5 mph - N/A   Clear
7:56 PM 59.0 °F - 56.8 °F 93% 30.26 in 10.0 mi Calm Calm - N/A   Clear
8:56 PM 56.8 °F - 55.9 °F 97% 30.26 in 10.0 mi Calm Calm - N/A   Clear
9:56 PM 57.9 °F - 56.8 °F 96% 30.25 in 10.0 mi East 4.6 mph - N/A   Clear
10:56 PM 57.9 °F - 55.9 °F 93% 30.25 in 10.0 mi East 3.5 mph - N/A   Clear
11:56 PM 54.9 °F - 54.0 °F 97% 30.24 in 9.0 mi Calm Calm - N/A   Clear